User: anonymous   Login
Location: Dakota Wesleyan University Observatory
(43.7274°N, 98.0462°W)
Time: 18:26:10
(UTC-06:00)
Language:

Helios 1A Rocket - Orbit

View from above orbital plane
View from above orbital plane
View from above satellite
View from above satellite

Ground track
Ground track

The orbit data is extracted from the following two-line orbital elements,

1 23608U 95033D   14329.48220723  .00003595  00000-0  34946-3 0  3878
2 23608 098.2733 199.3747 0019352 092.3342 268.0092 14.93137485 48088
Epoch (UTC): 25 November 2014 11:34:22
Eccentricity: 0.0019352
inclination: 98.2733°
perigee height: 574 km
apogee height: 601 km
right ascension of ascending node: 199.3747°
argument of perigee: 92.3342°
revolutions per day: 14.93137485
mean anomaly at epoch: 268.0092°
orbit number at epoch: 4808

The dashed part of the orbit path shows where the satellite is in the earth's shadow,  

DLR